Tracking 19831 objects as of 23-Aug-2019
HD Live streaming from Space Station
objects crossing your sky now

FENGYUN 1C DEB

Track FENGYUN 1C DEB now!
10-day predictions


NORAD ID: 38793
Int'l Code: 1999-025EUH
Perigee: 677.3 km
Apogee: 838.0 km
Inclination: 98.7 °
Period: 99.8 minutes
Semi major axis: 7128 km
RCS: 0.0014 m2 (small)
Launch date: May 10, 1999
Source: People's Republic of China (PRC)
Launch site: Taiyaun Space Center, China (TSC)

Note: This is SATELLITE DEBRIS
aabbcc
Your satellite tracking list
Your tracking list is empty




NASA's NSSDC Master Catalog

Two Line Element Set (TLE):
1 38793U 99025EUH 19233.16165645  .00000538  00000-0  16455-3 0  9997
2 38793  98.6825 301.1816 0112740  69.3851 320.2853 14.42414672402179
Source of the keplerian elements: AFSPC